Location: *
(28.3744°N, 81.5492°W)
Time: 03:56:00
(UTC+00:00)

Aureole 1 Rocket - Pass Details

Date: 15 June 2025
Orbit: 373 x 1191 km, 73.9° (Epoch: 11 July)

Event Time Altitude Azimuth Distance (km) Brightness Sun altitude
Exits shadow 09:49:48 11° 231° (SW) 1,626 4.5 -8.3°
Maximum altitude 09:52:57 30° 293° (WNW) 999 3.8 -7.7°
Drops below altitude 10° 09:56:53 10° 355° (N) 2,034 6.1 -6.9°
Sets 09:59:41 0° 6° (N) 3,111 7.2 -6.4°
